| time (UTC) | temp F | wind direction | speed MPH | gust MPH | rain 1hr in | rain 24hr in | rain mn in | humidity % | barometer mb |
| 20260506170439 | 56 | 261 | 2.0 | 7.0 | 0.00 | 0.50 | 0.33 | 94 | 1007.6 |
| 20260506164940 | 55 | 261 | 2.0 | 6.0 | 0.00 | 0.50 | 0.33 | 93 | 1006.9 |
| 20260506161941 | 55 | 12 | 0.0 | 2.0 | 0.01 | 0.50 | 0.33 | 93 | 1006.4 |
| 20260506154941 | 55 | 222 | 1.0 | 4.0 | 0.24 | 0.50 | 0.33 | 92 | 1006.4 |
| 20260506153441 | 54 | 150 | 2.0 | 6.0 | 0.33 | 0.50 | 0.33 | 91 | 1005.9 |
| 20260506151941 | 55 | 182 | 1.0 | 5.0 | 0.32 | 0.49 | 0.31 | 88 | 1006.4 |
| 20260506150440 | 56 | 254 | 4.0 | 15.0 | 0.24 | 0.41 | 0.23 | 83 | 1007.2 |
| 20260506144942 | 60 | 304 | 8.0 | 23.0 | 0.08 | 0.27 | 0.07 | 74 | 1006.8 |
| 20260506141940 | 64 | 285 | 2.0 | 6.0 | 0.00 | 0.19 | 0.00 | 64 | 1004.6 |
| 20260506140441 | 65 | 267 | 2.0 | 7.0 | 0.00 | 0.19 | 0.00 | 62 | 1004.9 |
| 20260506133440 | 68 | 65 | 4.0 | 11.0 | 0.00 | 0.19 | 0.00 | 59 | 1005.0 |
| 20260506131941 | 67 | 96 | 3.0 | 9.0 | 0.00 | 0.19 | 0.00 | 64 | 1005.0 |
| 20260506124941 | 66 | 119 | 3.0 | 9.0 | 0.00 | 0.19 | 0.00 | 63 | 1005.2 |
| 20260506123437 | 65 | 80 | 4.0 | 10.0 | 0.00 | 0.19 | 0.00 | 65 | 1005.5 |
| 20260506121936 | 65 | 55 | 2.0 | 6.0 | 0.00 | 0.19 | 0.00 | 65 | 1005.6 |
| 20260506114937 | 64 | 28 | 3.0 | 8.0 | 0.00 | 0.19 | 0.00 | 65 | 1006.0 |
| 20260506113436 | 64 | 71 | 2.0 | 7.0 | 0.00 | 0.19 | 0.00 | 65 | 1006.0 |
| 20260506110437 | 63 | 51 | 2.0 | 8.0 | 0.00 | 0.19 | 0.00 | 64 | 1006.4 |
| 20260506104937 | 63 | 32 | 1.0 | 9.0 | 0.00 | 0.19 | 0.00 | 64 | 1006.7 |
| 20260506101931 | 63 | 69 | 2.0 | 6.0 | 0.00 | 0.19 | 0.00 | 63 | 1007.0 |
| 20260506100431 | 63 | 28 | 2.0 | 8.0 | 0.00 | 0.19 | 0.00 | 63 | 1007.1 |
| 20260506094931 | 63 | 30 | 2.0 | 6.0 | 0.00 | 0.19 | 0.00 | 63 | 1007.3 |
| 20260506093433 | 63 | 304 | 1.0 | 4.0 | 0.00 | 0.19 | 0.00 | 67 | 1007.2 |
| 20260506084932 | 62 | 54 | 1.0 | 5.0 | 0.00 | 0.19 | 0.00 | 68 | 1007.4 |
| 20260506083425 | 62 | 123 | 2.0 | 6.0 | 0.00 | 0.19 | 0.00 | 68 | 1007.2 |
| 20260506081925 | 63 | 38 | 1.0 | 3.0 | 0.00 | 0.19 | 0.00 | 70 | 1007.3 |
| 20260506080426 | 62 | 112 | 1.0 | 4.0 | 0.00 | 0.19 | 0.00 | 67 | 1007.5 |
| 20260506073423 | 60 | 309 | 0.0 | 3.0 | 0.00 | 0.19 | 0.00 | 73 | 1007.7 |
| 20260506071745 | 58 | 200 | 0.0 | 0.0 | 0.00 | 0.19 | 0.00 | 78 | 1008.0 |
| 20260506060413 | 53 | 200 | 0.0 | 0.0 | 0.00 | 0.19 | 0.00 | 94 | 1008.1 |
| 20260506050412 | 50 | 246 | 0.0 | 0.0 | 0.00 | 0.19 | 0.00 | 94 | 1008.5 |
| 20260506044911 | 49 | 246 | 0.0 | 1.0 | 0.00 | 0.19 | 0.00 | 94 | 1008.5 |
| 20260506043409 | 49 | 246 | 0.0 | 1.0 | 0.00 | 0.19 | 0.00 | 93 | 1008.4 |
| 20260506041909 | 49 | 246 | 0.0 | 1.0 | 0.00 | 0.19 | 0.00 | 93 | 1008.5 |
| 20260506034909 | 49 | 246 | 0.0 | 1.0 | 0.00 | 0.19 | 0.00 | 93 | 1008.6 |
| 20260506033403 | 49 | 246 | 0.0 | 1.0 | 0.00 | 0.19 | 0.00 | 93 | 1008.7 |
| 20260506030403 | 49 | 246 | 0.0 | 3.0 | 0.00 | 0.19 | 0.00 | 93 | 1008.9 |
| 20260506024901 | 49 | 178 | 0.0 | 1.0 | 0.00 | 0.19 | 0.00 | 93 | 1009.2 |
| 20260506021902 | 49 | 179 | 1.0 | 3.0 | 0.00 | 0.19 | 0.00 | 92 | 1009.1 |
| 20260506020404 | 49 | 223 | 1.0 | 2.0 | 0.00 | 0.19 | 0.00 | 92 | 1008.9 |
| 20260506014904 | 49 | 223 | 0.0 | 1.0 | 0.00 | 0.19 | 0.00 | 92 | 1009.1 |
| 20260506013402 | 50 | 223 | 0.0 | 0.0 | 0.00 | 0.19 | 0.00 | 92 | 1009.1 |
| 20260506011907 | 51 | 223 | 0.0 | 1.0 | 0.00 | 0.19 | 0.00 | 92 | 1009.2 |
| 20260506010402 | 51 | 223 | 0.0 | 1.0 | 0.00 | 0.19 | 0.00 | 92 | 1009.5 |
| 20260506004903 | 51 | 223 | 0.0 | 3.0 | 0.00 | 0.19 | 0.00 | 92 | 1009.3 |
| 20260506003401 | 52 | 223 | 0.0 | 2.0 | 0.00 | 0.19 | 0.00 | 92 | 1009.5 |
| 20260506001903 | 52 | 223 | 0.0 | 2.0 | 0.00 | 0.19 | 0.00 | 92 | 1009.5 |
| 20260506000402 | 52 | 223 | 0.0 | 0.0 | 0.00 | 0.19 | 0.00 | 92 | 1009.8 |
| 20260505234902 | 53 | 223 | 0.0 | 1.0 | 0.00 | 0.19 | 0.00 | 92 | 1009.9 |
| 20260505233404 | 53 | 223 | 0.0 | 2.0 | 0.00 | 0.19 | 0.00 | 92 | 1010.0 |
| 20260505231901 | 53 | 223 | 1.0 | 4.0 | 0.00 | 0.19 | 0.00 | 92 | 1010.3 |
| 20260505230405 | 53 | 230 | 1.0 | 4.0 | 0.00 | 0.19 | 0.00 | 92 | 1010.3 |
| 20260505224904 | 54 | 213 | 2.0 | 7.0 | 0.00 | 0.19 | 0.00 | 92 | 1010.3 |
| 20260505220357 | 55 | 283 | 2.0 | 7.0 | 0.04 | 0.19 | 0.00 | 91 | 1010.6 |
| 20260505214857 | 55 | 242 | 1.0 | 5.0 | 0.08 | 0.15 | 0.19 | 91 | 1010.5 |
| 20260505213400 | 55 | 306 | 2.0 | 7.0 | 0.12 | 0.15 | 0.19 | 90 | 1010.7 |
| 20260505211858 | 55 | 295 | 3.0 | 9.0 | 0.11 | 0.15 | 0.17 | 89 | 1010.6 |
| 20260505210359 | 56 | 195 | 1.0 | 5.0 | 0.10 | 0.15 | 0.15 | 88 | 1010.5 |
| 20260505204859 | 56 | 196 | 2.0 | 5.0 | 0.06 | 0.05 | 0.11 | 87 | 1010.3 |
| 20260505201858 | 57 | 219 | 2.0 | 5.0 | 0.04 | 0.05 | 0.06 | 84 | 1009.7 |
| 20260505200350 | 58 | 236 | 1.0 | 5.0 | 0.03 | 0.05 | 0.05 | 82 | 1009.5 |
| 20260505193353 | 60 | 168 | 0.0 | 3.0 | 0.01 | 0.02 | 0.03 | 76 | 1008.5 |
| 20260505191847 | 60 | 269 | 0.0 | 2.0 | 0.00 | 0.02 | 0.02 | 74 | 1008.3 |
| 20260505190349 | 61 | 269 | 0.0 | 2.0 | 0.00 | 0.02 | 0.02 | 70 | 1008.0 |
| 20260505184850 | 61 | 269 | 0.0 | 3.0 | 0.00 | 0.02 | 0.02 | 68 | 1007.7 |
| 20260505181850 | 61 | 24 | 2.0 | 6.0 | 0.00 | 0.02 | 0.02 | 65 | 1007.6 |
| 20260505180346 | 62 | 283 | 2.0 | 8.0 | 0.00 | 0.02 | 0.02 | 67 | 1007.5 |
| 20260505173349 | 63 | 198 | 2.0 | 6.0 | 0.00 | 0.02 | 0.02 | 66 | 1007.2 |